Find Starlink 32845

NORAD ID: 62815 Int'l Des: 2025-018 Owner: SPXS Country: US Constellation: starlink operational
LEOCIRCULAR

現在のビュー

3D地球を読み込み中...

About Starlink 32845

Starlink 32845 (NORAD 62815) is a starlink constellation satellite (v2 mini) launched Jan 24, 2025 by SPXS of US. It operates in LEO, CIRCULAR orbit with a mass of 730.00 kg.

次回通過

Passes for default location (London). Set your location on the main map for personalized predictions.

高度履歴

Loading altitude history...

軌道要素

1 62815U 25018K 26263.13971273 .00060612 00000-0 15076-2 0 9996
2 62815 53.1552 123.2619 0005749 122.3206 237.8356 15.39721616 92983
Epoch: Sep 20, 2026 • Age: 15 hours

現在のステータス

高度 447.0 km
遠地点 / 近地点 N/A
速度 7.65 km/s
衛星直下点 43.02°N, 11.77°W
打ち上げ日 Jan 24, 2025
運用期間 1.6 years
タイプ internet

技術仕様

分類 Payload
質量 730.00 kg
乾燥質量 700.00 kg
長さ 0.30 m
スパン 29.00 m
形状 ? Box + pan
製造者 SPXS
バスタイプ Starlink V2M
フェーズステータス In Orbit
所有者/国 SPXS/US

Most Searched